RYR35SH LEZL-EGSS

Flight info

Callsign RYR35SH
Flight time 2h 23m
Altitude 36000
Route HIJ M30 PARKA N858 DGO N867 BLV P87 BELEN DCT DIDIG UP87 MOKOR UN873 OLEBA DCT ROGPU DCT DIKRO UM185 DESNA M185 TELTU
Aircraft B738/M-SDE2E3FGHIRWXY/LB1

Departure

Time 2026-04-16 11:56
Airport Seville Airport (LEZL)

Arrival

Time 2026-04-16 14:20
Airport London Stansted Airport (EGSS)
Time Latitude Longitude Altitude Speed Heading
2026-04-16 11:27 37.42243 -5.89911 95 ft 0 kts 314°
2026-04-16 11:49 37.42242 -5.89910 93 ft 1 kts 314°
2026-04-16 11:49 37.42230 -5.89895 93 ft 3 kts 314°
2026-04-16 11:49 37.42217 -5.89878 93 ft 2 kts 315°
2026-04-16 11:49 37.42205 -5.89862 93 ft 3 kts 295°
2026-04-16 11:50 37.42202 -5.89842 91 ft 3 kts 245°
2026-04-16 11:50 37.42212 -5.89823 91 ft 2 kts 225°
2026-04-16 11:50 37.42218 -5.89816 93 ft 1 kts 224°
2026-04-16 11:50 37.42218 -5.89815 93 ft 0 kts 224°
2026-04-16 11:52 37.42199 -5.89839 94 ft 8 kts 224°
2026-04-16 11:53 37.42143 -5.89909 93 ft 13 kts 224°
2026-04-16 11:53 37.42089 -5.89927 93 ft 13 kts 163°
2026-04-16 11:53 37.42006 -5.89892 94 ft 13 kts 184°
2026-04-16 11:53 37.41980 -5.89983 95 ft 12 kts 269°
2026-04-16 11:54 37.41980 -5.90103 94 ft 18 kts 270°
2026-04-16 11:54 37.41979 -5.90290 94 ft 22 kts 269°
2026-04-16 11:54 37.41978 -5.90478 93 ft 21 kts 270°
2026-04-16 11:54 37.41978 -5.90658 92 ft 21 kts 270°
2026-04-16 11:55 37.41978 -5.90835 90 ft 20 kts 270°
2026-04-16 11:55 37.41944 -5.90998 89 ft 19 kts 240°
2026-04-16 11:55 37.41877 -5.91141 90 ft 19 kts 239°
2026-04-16 11:55 37.41788 -5.91141 92 ft 18 kts 95°
2026-04-16 11:56 37.41789 -5.90969 92 ft 27 kts 90°
2026-04-16 11:56 37.41791 -5.90416 97 ft 100 kts 90°
2026-04-16 11:56 37.41794 -5.89266 168 ft 155 kts 89°
2026-04-16 11:56 37.41773 -5.87847 786 ft 169 kts 90°
2026-04-16 11:57 37.41742 -5.86336 1571 ft 176 kts 91°
2026-04-16 11:57 37.41718 -5.84771 2381 ft 181 kts 91°
2026-04-16 11:57 37.41691 -5.83164 3216 ft 187 kts 92°
2026-04-16 11:57 37.41715 -5.81504 4042 ft 193 kts 81°
2026-04-16 11:58 37.42039 -5.79831 4770 ft 205 kts 77°
2026-04-16 11:58 37.42404 -5.77978 5002 ft 232 kts 77°
2026-04-16 11:58 37.43153 -5.76102 5348 ft 253 kts 46°
2026-04-16 11:58 37.44697 -5.74837 5758 ft 274 kts 27°
2026-04-16 11:59 37.46430 -5.73802 6618 ft 277 kts 27°
2026-04-16 11:59 37.48192 -5.72779 7381 ft 281 kts 26°
2026-04-16 11:59 37.49980 -5.71740 8205 ft 284 kts 25°
2026-04-16 11:59 37.51781 -5.70686 9006 ft 288 kts 25°
2026-04-16 12:00 37.53616 -5.69602 9768 ft 293 kts 25°
2026-04-16 12:00 37.55467 -5.68501 10545 ft 297 kts 25°
2026-04-16 12:00 37.57405 -5.67342 10798 ft 321 kts 25°
2026-04-16 12:00 37.59486 -5.66092 11116 ft 339 kts 25°
2026-04-16 12:01 37.61626 -5.64800 11798 ft 344 kts 25°
2026-04-16 12:01 37.63800 -5.63486 12530 ft 349 kts 25°
2026-04-16 12:01 37.65997 -5.62155 13341 ft 351 kts 25°
2026-04-16 12:02 37.70466 -5.59443 14776 ft 361 kts 25°
2026-04-16 12:02 37.72738 -5.58062 15531 ft 364 kts 25°
2026-04-16 12:02 37.75039 -5.56662 16234 ft 370 kts 25°
2026-04-16 12:02 37.77372 -5.55240 16962 ft 374 kts 25°
2026-04-16 12:03 37.79737 -5.53796 17570 ft 381 kts 25°
2026-04-16 12:03 37.82136 -5.52332 18359 ft 383 kts 25°
2026-04-16 12:03 37.84535 -5.50867 19123 ft 384 kts 25°
2026-04-16 12:03 37.86952 -5.49391 19741 ft 388 kts 25°
2026-04-16 12:04 37.89366 -5.47915 20329 ft 393 kts 25°
2026-04-16 12:04 37.91865 -5.46386 20997 ft 395 kts 25°
2026-04-16 12:04 37.94310 -5.44889 21629 ft 398 kts 25°
2026-04-16 12:04 37.96814 -5.43356 22224 ft 401 kts 25°
2026-04-16 12:05 37.99338 -5.41808 22833 ft 404 kts 25°
2026-04-16 12:05 38.01880 -5.40249 23420 ft 408 kts 25°
2026-04-16 12:05 38.04443 -5.38675 23971 ft 411 kts 25°
2026-04-16 12:05 38.07023 -5.37089 24462 ft 413 kts 24°
2026-04-16 12:06 38.09622 -5.35491 24957 ft 416 kts 24°
2026-04-16 12:06 38.12233 -5.33884 25437 ft 419 kts 24°
2026-04-16 12:06 38.14866 -5.32262 25920 ft 421 kts 24°
2026-04-16 12:06 38.17510 -5.30632 26388 ft 424 kts 24°
2026-04-16 12:07 38.20171 -5.28991 26845 ft 427 kts 24°
2026-04-16 12:07 38.22849 -5.27338 27281 ft 429 kts 24°
2026-04-16 12:07 38.25550 -5.25669 27619 ft 435 kts 24°
2026-04-16 12:07 38.28286 -5.23977 28010 ft 438 kts 24°
2026-04-16 12:08 38.31025 -5.22281 28471 ft 439 kts 24°
2026-04-16 12:08 38.33784 -5.20572 28806 ft 444 kts 24°
2026-04-16 12:08 38.36574 -5.18842 29148 ft 447 kts 24°
2026-04-16 12:08 38.39380 -5.17101 29555 ft 450 kts 24°
2026-04-16 12:09 38.42198 -5.15351 29956 ft 452 kts 24°
2026-04-16 12:09 38.45030 -5.13591 30313 ft 454 kts 24°
2026-04-16 12:09 38.47869 -5.11824 30680 ft 454 kts 23°
2026-04-16 12:09 38.50799 -5.10402 31084 ft 448 kts
2026-04-16 12:10 38.53871 -5.10127 31530 ft 440 kts 354°
2026-04-16 12:10 38.56912 -5.10429 32061 ft 436 kts 352°
2026-04-16 12:10 38.59934 -5.10787 32481 ft 436 kts 352°
2026-04-16 12:10 38.62951 -5.11149 32830 ft 436 kts 352°
2026-04-16 12:11 38.65977 -5.11497 33212 ft 436 kts 352°
2026-04-16 12:11 38.68991 -5.11825 33643 ft 434 kts 352°
2026-04-16 12:11 38.71999 -5.12139 34075 ft 433 kts 352°
2026-04-16 12:11 38.74999 -5.12446 34423 ft 432 kts 352°
2026-04-16 12:12 38.78000 -5.12750 34735 ft 432 kts 352°
2026-04-16 12:12 38.80998 -5.13055 35078 ft 431 kts 352°
2026-04-16 12:12 38.83975 -5.13357 35455 ft 429 kts 352°
2026-04-16 12:12 38.86951 -5.13661 35763 ft 429 kts 352°
2026-04-16 12:13 38.89930 -5.13967 36044 ft 429 kts 352°
2026-04-16 12:13 38.92908 -5.14272 36199 ft 432 kts 352°
2026-04-16 12:13 38.98971 -5.14288 36177 ft 442 kts
2026-04-16 12:14 39.01931 -5.13193 36192 ft 444 kts 18°
2026-04-16 12:14 39.04639 -5.11390 36186 ft 445 kts 28°
2026-04-16 12:14 39.09842 -5.07029 36188 ft 447 kts 30°
2026-04-16 12:15 39.15037 -5.02608 36195 ft 448 kts 29°
2026-04-16 12:15 39.20257 -4.98226 36195 ft 449 kts 29°
2026-04-16 12:16 39.25506 -4.93854 36202 ft 449 kts 28°
2026-04-16 12:16 39.30756 -4.89483 36188 ft 449 kts 28°
2026-04-16 12:17 39.36008 -4.85103 36194 ft 449 kts 28°
2026-04-16 12:17 39.41253 -4.80718 36189 ft 449 kts 28°
2026-04-16 12:18 39.46488 -4.76333 36199 ft 448 kts 28°
2026-04-16 12:18 39.51712 -4.71949 36202 ft 447 kts 28°
2026-04-16 12:19 39.56923 -4.67568 36206 ft 446 kts 28°
2026-04-16 12:19 39.62121 -4.63192 36201 ft 446 kts 28°
2026-04-16 12:20 39.67316 -4.58809 36187 ft 445 kts 28°
2026-04-16 12:20 39.72508 -4.54420 36212 ft 444 kts 28°
2026-04-16 12:21 39.77684 -4.50038 36192 ft 444 kts 29°
2026-04-16 12:21 39.82850 -4.45656 36192 ft 443 kts 29°
2026-04-16 12:22 39.88012 -4.41269 36186 ft 443 kts 29°
2026-04-16 12:22 39.93163 -4.36885 36199 ft 442 kts 29°
2026-04-16 12:23 39.98371 -4.32647 36188 ft 438 kts 22°
2026-04-16 12:23 40.03863 -4.29268 36193 ft 436 kts 20°
2026-04-16 12:24 40.09400 -4.26018 36194 ft 436 kts 20°
2026-04-16 12:24 40.14926 -4.22713 36195 ft 437 kts 20°
2026-04-16 12:25 40.20441 -4.19359 36204 ft 437 kts 20°
2026-04-16 12:25 40.25959 -4.15982 36197 ft 438 kts 20°
2026-04-16 12:26 40.31474 -4.12598 36200 ft 438 kts 20°
2026-04-16 12:26 40.36994 -4.09206 36202 ft 438 kts 20°
2026-04-16 12:27 40.42509 -4.05812 36216 ft 438 kts 21°
2026-04-16 12:27 40.48030 -4.02409 36210 ft 438 kts 21°
2026-04-16 12:28 40.53547 -3.99001 36217 ft 438 kts 21°
2026-04-16 12:28 40.59052 -3.95595 36229 ft 437 kts 21°
2026-04-16 12:29 40.64515 -3.92209 36241 ft 437 kts 21°
2026-04-16 12:29 40.70021 -3.88790 36234 ft 437 kts 21°
2026-04-16 12:30 40.75521 -3.85368 36233 ft 437 kts 20°
2026-04-16 12:30 40.81018 -3.81943 36216 ft 437 kts 21°
2026-04-16 12:31 40.86507 -3.78515 36217 ft 437 kts 21°
2026-04-16 12:31 40.92001 -3.75079 36200 ft 437 kts 21°
2026-04-16 12:32 40.97484 -3.71643 36205 ft 436 kts 21°
2026-04-16 12:32 41.02963 -3.68203 36208 ft 436 kts 21°
2026-04-16 12:33 41.08442 -3.64758 36221 ft 436 kts 21°
2026-04-16 12:33 41.13926 -3.61302 36205 ft 436 kts 21°
2026-04-16 12:34 41.19462 -3.58059 36215 ft 435 kts 18°
2026-04-16 12:34 41.25081 -3.55049 36206 ft 436 kts 18°
2026-04-16 12:35 41.30697 -3.52021 36214 ft 436 kts 18°
2026-04-16 12:35 41.36320 -3.48946 36208 ft 437 kts 18°
2026-04-16 12:36 41.41935 -3.45860 36208 ft 437 kts 18°
2026-04-16 12:36 41.47555 -3.42767 36197 ft 437 kts 19°
2026-04-16 12:37 41.53171 -3.39670 36212 ft 437 kts 19°
2026-04-16 12:37 41.58795 -3.36566 36205 ft 438 kts 19°
2026-04-16 12:38 41.64428 -3.33452 36202 ft 438 kts 19°
2026-04-16 12:38 41.70064 -3.30331 36206 ft 439 kts 19°
2026-04-16 12:39 41.74753 -3.27731 36209 ft 439 kts 19°
2026-04-16 12:39 41.80400 -3.24593 36202 ft 440 kts 19°
2026-04-16 12:40 41.86978 -3.20931 36207 ft 440 kts 19°
2026-04-16 12:40 41.91712 -3.18290 36207 ft 440 kts 19°
2026-04-16 12:41 41.97377 -3.15124 36210 ft 441 kts 19°
2026-04-16 12:41 42.03044 -3.11951 36208 ft 441 kts 19°
2026-04-16 12:42 42.08714 -3.08770 36208 ft 442 kts 19°
2026-04-16 12:42 42.14390 -3.05580 36204 ft 442 kts 19°
2026-04-16 12:43 42.20072 -3.02380 36201 ft 442 kts 20°
2026-04-16 12:43 42.25747 -2.99183 36207 ft 442 kts 20°
2026-04-16 12:44 42.31428 -2.95968 36192 ft 443 kts 20°
2026-04-16 12:44 42.37106 -2.92751 36210 ft 443 kts 20°
2026-04-16 12:45 42.42769 -2.89585 36191 ft 443 kts 15°
2026-04-16 12:45 42.48756 -2.88143 36172 ft 435 kts 356°
2026-04-16 12:46 42.54794 -2.88443 36193 ft 434 kts 354°
2026-04-16 12:46 42.60836 -2.88839 36182 ft 435 kts 354°
2026-04-16 12:47 42.66891 -2.89189 36188 ft 436 kts 354°
2026-04-16 12:47 42.72956 -2.89509 36188 ft 436 kts 354°
2026-04-16 12:48 42.79032 -2.89820 36186 ft 437 kts 354°
2026-04-16 12:48 42.85111 -2.90133 36176 ft 437 kts 354°
2026-04-16 12:49 42.91180 -2.90447 36188 ft 436 kts 354°
2026-04-16 12:49 42.97249 -2.90761 36178 ft 436 kts 354°
2026-04-16 12:50 43.03313 -2.91077 36199 ft 436 kts 354°
2026-04-16 12:50 43.09379 -2.91394 36188 ft 437 kts 354°
2026-04-16 12:51 43.15453 -2.91712 36192 ft 437 kts 354°
2026-04-16 12:51 43.21530 -2.92031 36183 ft 437 kts 354°
2026-04-16 12:52 43.27607 -2.92350 36192 ft 437 kts 354°
2026-04-16 12:52 43.33692 -2.91729 36194 ft 443 kts
2026-04-16 12:53 43.39724 -2.89885 36200 ft 444 kts
2026-04-16 12:53 43.45757 -2.88029 36189 ft 445 kts
2026-04-16 12:54 43.51814 -2.86235 36198 ft 445 kts
2026-04-16 12:54 43.57878 -2.84460 36200 ft 446 kts
2026-04-16 12:55 43.63948 -2.82680 36209 ft 446 kts
2026-04-16 12:55 43.70026 -2.80871 36208 ft 447 kts
2026-04-16 12:56 43.76095 -2.78901 36207 ft 448 kts 10°
2026-04-16 12:56 43.82125 -2.76923 36213 ft 449 kts 10°
2026-04-16 12:57 43.88209 -2.74939 36208 ft 449 kts 10°
2026-04-16 12:57 43.94320 -2.73111 36205 ft 448 kts
2026-04-16 12:58 44.00475 -2.71757 36217 ft 448 kts
2026-04-16 12:58 44.06638 -2.70477 36211 ft 448 kts
2026-04-16 12:59 44.12810 -2.69151 36212 ft 449 kts
2026-04-16 13:00 44.22066 -2.67103 36214 ft 449 kts
2026-04-16 13:00 44.28240 -2.65725 36222 ft 449 kts
2026-04-16 13:01 44.34408 -2.64347 36224 ft 449 kts
2026-04-16 13:01 44.40576 -2.62966 36232 ft 449 kts
2026-04-16 13:02 44.46745 -2.61582 36220 ft 449 kts
2026-04-16 13:02 44.52914 -2.60196 36224 ft 449 kts
2026-04-16 13:03 44.59081 -2.58807 36252 ft 449 kts
2026-04-16 13:03 44.65245 -2.57415 36234 ft 449 kts
2026-04-16 13:04 44.71370 -2.56030 36238 ft 449 kts
2026-04-16 13:04 44.77540 -2.54631 36246 ft 449 kts
2026-04-16 13:05 44.83714 -2.53229 36240 ft 449 kts
2026-04-16 13:05 44.89886 -2.51823 36242 ft 449 kts
2026-04-16 13:06 44.96059 -2.50415 36248 ft 450 kts
2026-04-16 13:06 45.02234 -2.49003 36242 ft 450 kts
2026-04-16 13:07 45.08417 -2.47586 36251 ft 450 kts
2026-04-16 13:07 45.14602 -2.46165 36250 ft 450 kts
2026-04-16 13:08 45.20791 -2.44741 36258 ft 451 kts
2026-04-16 13:08 45.26992 -2.43310 36253 ft 451 kts
2026-04-16 13:09 45.33191 -2.41877 36254 ft 452 kts
2026-04-16 13:09 45.39394 -2.40440 36266 ft 452 kts
2026-04-16 13:10 45.45608 -2.38997 36256 ft 452 kts
2026-04-16 13:10 45.51820 -2.37551 36262 ft 452 kts
2026-04-16 13:11 45.58036 -2.36101 36272 ft 453 kts
2026-04-16 13:11 45.64251 -2.34649 36258 ft 453 kts
2026-04-16 13:12 45.70459 -2.33194 36271 ft 452 kts
2026-04-16 13:12 45.76673 -2.31735 36269 ft 452 kts
2026-04-16 13:13 45.82883 -2.30274 36262 ft 452 kts
2026-04-16 13:13 45.89086 -2.28811 36263 ft 451 kts
2026-04-16 13:14 45.95279 -2.27348 36279 ft 451 kts
2026-04-16 13:14 46.01474 -2.25882 36267 ft 451 kts
2026-04-16 13:15 46.07673 -2.24404 36269 ft 451 kts
2026-04-16 13:15 46.13861 -2.22895 36269 ft 451 kts
2026-04-16 13:16 46.20052 -2.21378 36276 ft 451 kts
2026-04-16 13:16 46.26243 -2.19863 36269 ft 451 kts
2026-04-16 13:17 46.32441 -2.18344 36268 ft 451 kts
2026-04-16 13:17 46.38628 -2.16826 36274 ft 452 kts
2026-04-16 13:18 46.44828 -2.15300 36271 ft 452 kts
2026-04-16 13:18 46.51024 -2.13772 36272 ft 452 kts
2026-04-16 13:19 46.57182 -2.12250 36283 ft 452 kts
2026-04-16 13:19 46.63420 -2.10705 36272 ft 452 kts
2026-04-16 13:20 46.69630 -2.09163 36262 ft 452 kts
2026-04-16 13:20 46.75835 -2.07619 36264 ft 452 kts
2026-04-16 13:21 46.82040 -2.06072 36263 ft 452 kts
2026-04-16 13:21 46.88202 -2.04532 36263 ft 452 kts
2026-04-16 13:22 46.94402 -2.02979 36264 ft 452 kts
2026-04-16 13:22 47.00504 -2.00709 36266 ft 459 kts 19°
2026-04-16 13:23 47.05982 -1.95799 36269 ft 466 kts 35°
2026-04-16 13:23 47.11077 -1.89927 36255 ft 465 kts 34°
2026-04-16 13:24 47.16538 -1.85024 36263 ft 456 kts 18°
2026-04-16 13:24 47.22587 -1.82630 36256 ft 448 kts
2026-04-16 13:25 47.28725 -1.80959 36240 ft 448 kts
2026-04-16 13:25 47.34859 -1.79270 36240 ft 449 kts
2026-04-16 13:26 47.40995 -1.77527 36253 ft 450 kts
2026-04-16 13:26 47.47138 -1.75755 36245 ft 450 kts
2026-04-16 13:27 47.52246 -1.74274 36244 ft 450 kts
2026-04-16 13:27 47.58399 -1.72488 36261 ft 450 kts
2026-04-16 13:28 47.64547 -1.70701 36246 ft 451 kts
2026-04-16 13:28 47.70707 -1.68906 36242 ft 451 kts
2026-04-16 13:29 47.76868 -1.67106 36247 ft 450 kts
2026-04-16 13:29 47.83018 -1.65305 36241 ft 451 kts
2026-04-16 13:30 47.89164 -1.63501 36248 ft 450 kts
2026-04-16 13:30 47.95302 -1.61695 36237 ft 449 kts
2026-04-16 13:31 48.01430 -1.59888 36253 ft 449 kts
2026-04-16 13:31 48.07554 -1.58078 36236 ft 448 kts
2026-04-16 13:32 48.13677 -1.56263 36237 ft 448 kts
2026-04-16 13:32 48.19793 -1.54447 36237 ft 448 kts
2026-04-16 13:33 48.25908 -1.52626 36242 ft 448 kts
2026-04-16 13:33 48.31993 -1.50810 36231 ft 449 kts
2026-04-16 13:34 48.38113 -1.48979 36235 ft 449 kts
2026-04-16 13:34 48.44241 -1.47141 36248 ft 449 kts
2026-04-16 13:35 48.50379 -1.45296 36235 ft 450 kts
2026-04-16 13:35 48.56519 -1.43446 36233 ft 450 kts
2026-04-16 13:36 48.62666 -1.41591 36228 ft 450 kts
2026-04-16 13:36 48.68814 -1.39726 36236 ft 451 kts
2026-04-16 13:37 48.74960 -1.37802 36232 ft 451 kts
2026-04-16 13:37 48.81107 -1.35856 36229 ft 451 kts
2026-04-16 13:38 48.87251 -1.33912 36235 ft 451 kts
2026-04-16 13:38 48.93399 -1.31967 36231 ft 451 kts
2026-04-16 13:39 48.99545 -1.30020 36227 ft 450 kts
2026-04-16 13:39 49.05672 -1.28074 36229 ft 449 kts
2026-04-16 13:40 49.11782 -1.26129 36240 ft 448 kts
2026-04-16 13:40 49.17888 -1.24180 36223 ft 448 kts
2026-04-16 13:41 49.23986 -1.22229 36230 ft 447 kts
2026-04-16 13:41 49.30068 -1.20278 36247 ft 447 kts
2026-04-16 13:42 49.36149 -1.18324 36225 ft 446 kts
2026-04-16 13:42 49.42229 -1.16364 36223 ft 446 kts
2026-04-16 13:43 49.48314 -1.14526 36114 ft 445 kts
2026-04-16 13:43 49.51347 -1.13667 35831 ft 441 kts
2026-04-16 13:43 49.54348 -1.12822 35604 ft 436 kts
2026-04-16 13:43 49.57317 -1.11982 35355 ft 431 kts
2026-04-16 13:44 49.60258 -1.11147 35109 ft 428 kts
2026-04-16 13:44 49.63176 -1.10313 34864 ft 426 kts
2026-04-16 13:44 49.66082 -1.09480 34624 ft 423 kts
2026-04-16 13:44 49.68969 -1.08649 34386 ft 421 kts
2026-04-16 13:45 49.71835 -1.07821 34110 ft 416 kts
2026-04-16 13:45 49.74664 -1.07001 33746 ft 413 kts
2026-04-16 13:45 49.77478 -1.06185 33374 ft 409 kts
2026-04-16 13:45 49.80260 -1.05378 33011 ft 406 kts
2026-04-16 13:46 49.83027 -1.04575 32666 ft 403 kts
2026-04-16 13:46 49.85776 -1.03776 32310 ft 400 kts
2026-04-16 13:46 49.88501 -1.02984 31966 ft 397 kts
2026-04-16 13:46 49.91173 -1.02206 31627 ft 395 kts
2026-04-16 13:47 49.93900 -1.01411 31279 ft 392 kts
2026-04-16 13:47 49.96574 -1.00631 30962 ft 390 kts
2026-04-16 13:47 49.99234 -0.99854 30627 ft 388 kts
2026-04-16 13:47 50.01848 -0.99090 30284 ft 387 kts
2026-04-16 13:48 50.04489 -0.98316 29879 ft 385 kts
2026-04-16 13:48 50.07111 -0.97547 29506 ft 382 kts
2026-04-16 13:48 50.09713 -0.96782 29146 ft 379 kts
2026-04-16 13:48 50.12291 -0.96023 28791 ft 376 kts
2026-04-16 13:49 50.14850 -0.95269 28428 ft 373 kts
2026-04-16 13:49 50.17389 -0.94521 28096 ft 370 kts
2026-04-16 13:49 50.19911 -0.93778 27773 ft 367 kts
2026-04-16 13:49 50.22413 -0.93039 27426 ft 365 kts
2026-04-16 13:50 50.24900 -0.92305 27082 ft 363 kts
2026-04-16 13:50 50.27373 -0.91574 26743 ft 360 kts
2026-04-16 13:50 50.29828 -0.90847 26414 ft 358 kts
2026-04-16 13:50 50.32273 -0.90122 26085 ft 356 kts
2026-04-16 13:51 50.34701 -0.89402 25752 ft 354 kts
2026-04-16 13:51 50.37114 -0.88686 25424 ft 352 kts
2026-04-16 13:51 50.39514 -0.87973 25098 ft 351 kts
2026-04-16 13:51 50.41907 -0.87261 24795 ft 349 kts
2026-04-16 13:52 50.44295 -0.86550 24440 ft 349 kts
2026-04-16 13:52 50.46671 -0.85842 24117 ft 348 kts
2026-04-16 13:52 50.49051 -0.85132 23771 ft 347 kts
2026-04-16 13:52 50.51421 -0.84424 23391 ft 346 kts
2026-04-16 13:53 50.53781 -0.83717 23028 ft 344 kts
2026-04-16 13:53 50.56132 -0.83013 22690 ft 342 kts
2026-04-16 13:53 50.58462 -0.82313 22356 ft 340 kts
2026-04-16 13:53 50.60780 -0.81618 22035 ft 338 kts
2026-04-16 13:54 50.63076 -0.80928 21714 ft 336 kts
2026-04-16 13:54 50.65369 -0.80239 21396 ft 334 kts
2026-04-16 13:54 50.67647 -0.79555 21090 ft 332 kts
2026-04-16 13:54 50.69915 -0.78872 20767 ft 331 kts
2026-04-16 13:55 50.72171 -0.78193 20449 ft 330 kts
2026-04-16 13:55 50.74421 -0.77515 20136 ft 328 kts
2026-04-16 13:55 50.76659 -0.76839 19825 ft 327 kts
2026-04-16 13:55 50.78888 -0.76164 19514 ft 326 kts
2026-04-16 13:56 50.81110 -0.75457 19206 ft 326 kts
2026-04-16 13:56 50.83274 -0.74308 18966 ft 329 kts 17°
2026-04-16 13:56 50.85411 -0.72930 18723 ft 335 kts 18°
2026-04-16 13:56 50.87573 -0.71487 18480 ft 339 kts 19°
2026-04-16 13:57 50.89764 -0.70022 18160 ft 343 kts 19°
2026-04-16 13:57 50.91964 -0.68562 17884 ft 343 kts 19°
2026-04-16 13:57 50.94159 -0.67117 17596 ft 342 kts 19°
2026-04-16 13:58 50.98540 -0.64256 17071 ft 339 kts 18°
2026-04-16 13:58 51.00717 -0.62841 16803 ft 338 kts 19°
2026-04-16 13:58 51.02885 -0.61433 16545 ft 336 kts 19°
2026-04-16 13:58 51.05048 -0.60029 16291 ft 335 kts 19°
2026-04-16 13:59 51.07206 -0.58627 16032 ft 335 kts 19°
2026-04-16 13:59 51.09353 -0.57231 15773 ft 332 kts 19°
2026-04-16 13:59 51.11478 -0.55847 15531 ft 328 kts 19°
2026-04-16 13:59 51.13569 -0.54484 15272 ft 323 kts 19°
2026-04-16 14:00 51.15642 -0.53132 15020 ft 321 kts 19°
2026-04-16 14:00 51.17706 -0.51785 14790 ft 319 kts 19°
2026-04-16 14:00 51.19751 -0.50450 14553 ft 318 kts 19°
2026-04-16 14:00 51.21801 -0.49111 14321 ft 317 kts 19°
2026-04-16 14:01 51.23792 -0.47807 14352 ft 309 kts 19°
2026-04-16 14:01 51.25792 -0.46498 14385 ft 315 kts 19°
2026-04-16 14:01 51.27870 -0.45139 14397 ft 321 kts 19°
2026-04-16 14:01 51.29926 -0.43734 14387 ft 322 kts 21°
2026-04-16 14:02 51.31934 -0.42276 14388 ft 320 kts 21°
2026-04-16 14:02 51.33947 -0.40791 14388 ft 318 kts 21°
2026-04-16 14:02 51.35962 -0.39307 14372 ft 318 kts 21°
2026-04-16 14:02 51.37971 -0.37832 14364 ft 319 kts 21°
2026-04-16 14:03 51.40008 -0.36346 14218 ft 323 kts 21°
2026-04-16 14:03 51.42081 -0.34835 14046 ft 322 kts 21°
2026-04-16 14:03 51.44087 -0.33371 13885 ft 320 kts 21°
2026-04-16 14:03 51.46108 -0.31896 13702 ft 319 kts 21°
2026-04-16 14:04 51.48150 -0.30403 13516 ft 317 kts 21°
2026-04-16 14:04 51.50127 -0.28957 13353 ft 316 kts 21°
2026-04-16 14:04 51.52118 -0.27499 13184 ft 314 kts 21°
2026-04-16 14:04 51.54109 -0.26040 13017 ft 313 kts 21°
2026-04-16 14:05 51.56083 -0.24593 12846 ft 312 kts 21°
2026-04-16 14:05 51.58053 -0.23146 12699 ft 310 kts 21°
2026-04-16 14:05 51.60016 -0.21704 12479 ft 310 kts 21°
2026-04-16 14:05 51.61972 -0.20266 12312 ft 309 kts 21°
2026-04-16 14:06 51.63915 -0.18836 12139 ft 308 kts 21°
2026-04-16 14:06 51.65862 -0.17402 11982 ft 307 kts 21°
2026-04-16 14:06 51.67818 -0.15960 11818 ft 310 kts 22°
2026-04-16 14:06 51.69794 -0.14503 11662 ft 314 kts 22°
2026-04-16 14:07 51.71780 -0.13035 11488 ft 314 kts 22°
2026-04-16 14:07 51.73762 -0.11567 11318 ft 313 kts 22°
2026-04-16 14:07 51.75737 -0.10115 11157 ft 312 kts 21°
2026-04-16 14:07 51.77720 -0.08715 11003 ft 310 kts 20°
2026-04-16 14:08 51.79697 -0.07338 10820 ft 309 kts 20°
2026-04-16 14:08 51.81673 -0.05962 10682 ft 309 kts 20°
2026-04-16 14:08 51.83644 -0.04588 10511 ft 309 kts 21°
2026-04-16 14:08 51.85621 -0.03206 10225 ft 310 kts 21°
2026-04-16 14:09 51.87614 -0.01809 9706 ft 314 kts 21°
2026-04-16 14:09 51.89628 -0.00395 9249 ft 314 kts 21°
2026-04-16 14:09 51.91585 0.00983 8952 ft 301 kts 21°
2026-04-16 14:09 51.93476 0.02316 8575 ft 293 kts 21°
2026-04-16 14:10 51.95323 0.03618 8213 ft 286 kts 21°
2026-04-16 14:10 51.97128 0.04892 7852 ft 280 kts 21°
2026-04-16 14:10 51.98902 0.06120 7493 ft 274 kts 21°
2026-04-16 14:10 52.00476 0.07816 7130 ft 272 kts 43°
2026-04-16 14:11 52.01800 0.09973 6798 ft 268 kts 45°
2026-04-16 14:11 52.03076 0.12144 6454 ft 264 kts 46°
2026-04-16 14:11 52.04334 0.14298 6068 ft 261 kts 46°
2026-04-16 14:11 52.05586 0.16451 5738 ft 265 kts 46°
2026-04-16 14:12 52.06433 0.17902 5494 ft 268 kts 46°
2026-04-16 14:12 52.07716 0.20127 5146 ft 272 kts 50°
2026-04-16 14:12 52.08579 0.22830 4816 ft 271 kts 79°
2026-04-16 14:12 52.08630 0.25859 4472 ft 269 kts 98°
2026-04-16 14:13 52.08401 0.28869 4107 ft 266 kts 100°
2026-04-16 14:13 52.08153 0.31767 3996 ft 252 kts 101°
2026-04-16 14:13 52.07917 0.34518 3970 ft 241 kts 101°
2026-04-16 14:13 52.07698 0.37144 3953 ft 226 kts 101°
2026-04-16 14:14 52.07483 0.39613 3723 ft 215 kts 105°
2026-04-16 14:14 52.06797 0.41586 3458 ft 196 kts 150°
2026-04-16 14:14 52.05575 0.42170 3228 ft 180 kts 184°
2026-04-16 14:14 52.04329 0.42254 2962 ft 180 kts 181°
2026-04-16 14:15 52.03043 0.42362 2512 ft 190 kts 182°
2026-04-16 14:15 52.01705 0.42448 2121 ft 190 kts 187°
2026-04-16 14:15 52.00582 0.41677 2011 ft 170 kts 229°
2026-04-16 14:15 51.99836 0.40304 1971 ft 157 kts 218°
2026-04-16 14:16 51.98989 0.39282 1983 ft 150 kts 227°
2026-04-16 14:16 51.98257 0.38084 2005 ft 150 kts 224°
2026-04-16 14:16 51.97497 0.36963 2017 ft 149 kts 223°
2026-04-16 14:16 51.96731 0.35824 2012 ft 150 kts 223°
2026-04-16 14:17 51.95970 0.34685 2006 ft 148 kts 225°
2026-04-16 14:17 51.95208 0.33541 1913 ft 152 kts 225°
2026-04-16 14:17 51.94452 0.32408 1716 ft 141 kts 224°
2026-04-16 14:17 51.93761 0.31381 1535 ft 134 kts 224°
2026-04-16 14:18 51.93088 0.30368 1372 ft 132 kts 225°
2026-04-16 14:18 51.92391 0.29315 1174 ft 140 kts 223°
2026-04-16 14:18 51.91679 0.28260 1005 ft 138 kts 223°
2026-04-16 14:18 51.90972 0.27186 822 ft 140 kts 224°
2026-04-16 14:19 51.90250 0.26104 628 ft 140 kts 223°
2026-04-16 14:19 51.89549 0.25059 421 ft 134 kts 225°
2026-04-16 14:19 51.88882 0.24051 337 ft 122 kts 222°
2026-04-16 14:19 51.88367 0.23278 333 ft 80 kts 223°
2026-04-16 14:20 51.88069 0.22829 330 ft 37 kts 223°
2026-04-16 14:20 51.87941 0.22690 333 ft 19 kts 165°
2026-04-16 14:20 51.87849 0.22832 336 ft 18 kts 133°
2026-04-16 14:20 51.87830 0.22864 336 ft 0 kts 133°
2026-04-16 14:21 51.87817 0.22886 335 ft 7 kts 134°
2026-04-16 14:21 51.87773 0.22962 336 ft 10 kts 133°
2026-04-16 14:22 51.87729 0.23050 334 ft 10 kts 109°
2026-04-16 14:22 51.87756 0.23146 334 ft 10 kts 43°
2026-04-16 14:22 51.87821 0.23244 331 ft 17 kts 43°
2026-04-16 14:22 51.87913 0.23381 333 ft 18 kts 43°
2026-04-16 14:23 51.88004 0.23519 336 ft 19 kts 43°
2026-04-16 14:23 51.88119 0.23691 335 ft 25 kts 43°
2026-04-16 14:23 51.88261 0.23904 337 ft 29 kts 43°
2026-04-16 14:23 51.88403 0.24115 340 ft 27 kts 43°
2026-04-16 14:24 51.88531 0.24314 351 ft 25 kts 42°
2026-04-16 14:24 51.88656 0.24497 347 ft 23 kts 43°
2026-04-16 14:24 51.88772 0.24671 343 ft 22 kts 43°
2026-04-16 14:24 51.88887 0.24842 342 ft 22 kts 42°
2026-04-16 14:25 51.89002 0.25014 342 ft 23 kts 43°
2026-04-16 14:25 51.89118 0.25190 342 ft 22 kts 43°
2026-04-16 14:25 51.89232 0.25361 347 ft 22 kts 43°
2026-04-16 14:25 51.89321 0.25494 343 ft 0 kts 43°
2026-04-16 14:26 51.89339 0.25555 345 ft 12 kts 94°
2026-04-16 14:26 51.89286 0.25665 343 ft 13 kts 133°
2026-04-16 14:26 51.89225 0.25769 347 ft 12 kts 134°
2026-04-16 14:26 51.89198 0.25785 346 ft 2 kts 188°
2026-04-16 14:27 51.89158 0.25762 349 ft 8 kts 223°
2026-04-16 14:27 51.89153 0.25754 348 ft 0 kts 222°
2026-04-16 14:27 51.89145 0.25743 343 ft 0 kts 222°